Weather History for Waskish, MN

Change the Weather History Date:

Tuesday, July 30, 2013

  Actual Average (KBDE) Record (KBDE)
Temperature  
Mean Temperature 64 °F -  
Max Temperature 71 °F 80 °F 94 °F (1987)
Min Temperature 57 °F 56 °F 40 °F (1960)
Degree Days  
Heating Degree Days 1    
Growing Degree Days 14 (Base 50)    
Moisture  
Dew Point 60 °F    
Average Humidity 85    
Maximum Humidity 100    
Minimum Humidity 73    
Precipitation  
Precipitation 0.09 in - - ()
Sea Level Pressure  
Sea Level Pressure 30.04 in    
Wind  
Wind Speed 5 mph (SW)    
Max Wind Speed 14 mph    
Max Gust Speed -    
Visibility 10 miles    
Events Rain    
Averages and records for this station are not official NWS values.
T = Trace of Precipitation, MM = Missing Value Source: NWS Daily Summary

Daily Weather History Graph

Daily Weather History Graph

Search for Another Location

Airport:

Trip Planner

Search our weather history database for the weather conditions in past years. The results will help you decide how hot, cold, wet, or windy it might be!

Date:

Astronomy

Jul. 30, 2013 Rise Set
Actual Time 5:51 AM CDT 8:56 PM CDT
Civil Twilight 5:14 AM CDT 9:33 PM CDT
Nautical Twilight 4:26 AM CDT 10:20 PM CDT
Astronomical Twilight 3:27 AM CDT 11:19 PM CDT
Moon 12:14 AM CDT (7/30) 3:15 PM CDT (7/30)
Length of Visible Light 16h 18m
Length of Day
15h 05m
Last Quarter, 41% of the Moon is Illuminated
Jul 30
Last Quarter
Aug 6
New
Aug 14
First Quarter
Aug 20
Full
Aug 28
Last Quarter

Hourly Weather History & Observations

Time (CDT) Temp. Dew Point Humidity Pressure Visibility Wind Dir Wind Speed Gust Speed Precip Events Conditions
12:08 AM 60.8 °F 55.4 °F 82% 30.05 in 10.0 mi SSE 4.6 mph - N/A   Mostly Cloudy
12:29 AM 60.8 °F 55.4 °F 82% 30.05 in 10.0 mi SSE 4.6 mph - N/A   Mostly Cloudy
12:49 AM 60.8 °F 53.6 °F 77% 30.05 in 10.0 mi SSE 4.6 mph - N/A   Scattered Clouds
1:08 AM 59.0 °F 53.6 °F 82% 30.05 in 10.0 mi South 4.6 mph - N/A   Mostly Cloudy
1:29 AM 59.0 °F 55.4 °F 88% 30.05 in 10.0 mi South 3.5 mph - N/A   Scattered Clouds
1:49 AM 60.8 °F 55.4 °F 82% 30.06 in 10.0 mi South 4.6 mph - N/A Rain Light Rain
2:08 AM 60.8 °F 55.4 °F 82% 30.05 in 10.0 mi South 3.5 mph - 0.01 in Rain Rain
2:29 AM 59.0 °F 55.4 °F 88% 30.04 in 7.0 mi Calm Calm - 0.06 in Rain Rain
2:49 AM 59.0 °F 55.4 °F 88% 30.05 in 10.0 mi South 5.8 mph - 0.09 in Rain Light Rain
3:08 AM 59.0 °F 55.4 °F 88% 30.05 in 10.0 mi SSW 5.8 mph - N/A   Overcast
3:29 AM 59.0 °F 57.2 °F 94% 30.04 in 10.0 mi South 4.6 mph - N/A   Mostly Cloudy
3:49 AM 57.2 °F 55.4 °F 94% 30.04 in 10.0 mi Calm Calm - N/A   Overcast
4:08 AM 57.2 °F 55.4 °F 94% 30.04 in 10.0 mi Calm Calm - N/A   Overcast
4:29 AM 57.2 °F 55.4 °F 94% 30.03 in 10.0 mi SSE 3.5 mph - N/A   Overcast
4:49 AM 57.2 °F 55.4 °F 94% 30.04 in 10.0 mi Calm Calm - N/A   Overcast
5:08 AM 57.2 °F 55.4 °F 94% 30.04 in 10.0 mi Calm Calm - N/A   Overcast
5:29 AM 57.2 °F 55.4 °F 94% 30.04 in 10.0 mi Calm Calm - N/A   Overcast
5:49 AM 57.2 °F 55.4 °F 94% 30.04 in 7.0 mi SE 3.5 mph - N/A   Light Drizzle
6:08 AM 57.2 °F 55.4 °F 94% 30.04 in 10.0 mi Calm Calm - N/A   Overcast
6:29 AM 57.2 °F 55.4 °F 94% 30.04 in 10.0 mi Calm Calm - N/A   Overcast
6:49 AM 57.2 °F 57.2 °F 100% 30.05 in 10.0 mi Calm Calm - N/A   Overcast
7:08 AM 57.2 °F 57.2 °F 100% 30.04 in 10.0 mi SSE 3.5 mph - N/A   Overcast
7:29 AM 59.0 °F 57.2 °F 94% 30.04 in 10.0 mi South 3.5 mph - N/A   Overcast
7:49 AM 60.8 °F 57.2 °F 88% 30.05 in 10.0 mi South 3.5 mph - N/A   Overcast
8:08 AM 60.8 °F 59.0 °F 94% 30.05 in 10.0 mi South 4.6 mph - N/A   Overcast
8:29 AM 60.8 °F 59.0 °F 94% 30.05 in 10.0 mi SSW 4.6 mph - N/A   Overcast
8:49 AM 60.8 °F 59.0 °F 94% 30.05 in 10.0 mi SSW 4.6 mph - N/A   Overcast
9:08 AM 60.8 °F 60.8 °F 100% 30.05 in 10.0 mi South 3.5 mph - N/A   Overcast
9:29 AM 60.8 °F 60.8 °F 100% 30.04 in 10.0 mi SW 4.6 mph - N/A   Overcast
9:49 AM 62.6 °F 60.8 °F 94% 30.04 in 10.0 mi WSW 8.1 mph - N/A   Overcast
10:08 AM 64.4 °F 62.6 °F 94% 30.04 in 10.0 mi WSW 8.1 mph - N/A   Mostly Cloudy
10:29 AM 64.4 °F 60.8 °F 88% 30.04 in 10.0 mi WSW 6.9 mph - N/A   Overcast
10:49 AM 64.4 °F 60.8 °F 88% 30.04 in 10.0 mi WSW 10.4 mph - N/A   Overcast
11:08 AM 66.2 °F 60.8 °F 83% 30.04 in 10.0 mi WSW 8.1 mph - N/A   Overcast
11:29 AM 66.2 °F 60.8 °F 83% 30.05 in 10.0 mi WSW 11.5 mph - N/A   Overcast
11:48 AM 66.2 °F 60.8 °F 83% 30.06 in 10.0 mi WSW 9.2 mph - N/A   Overcast
12:08 PM 68.0 °F 60.8 °F 78% 30.06 in 10.0 mi SW 11.5 mph - N/A   Mostly Cloudy
12:29 PM 69.8 °F 60.8 °F 73% 30.05 in 10.0 mi SW 10.4 mph - N/A   Mostly Cloudy
12:48 PM 69.8 °F 62.6 °F 78% 30.05 in 10.0 mi WSW 11.5 mph - N/A   Scattered Clouds
1:08 PM 69.8 °F 62.6 °F 78% 30.05 in 10.0 mi WSW 10.4 mph - N/A   Clear
1:29 PM 69.8 °F 60.8 °F 73% 30.05 in 10.0 mi SW 13.8 mph - N/A   Clear
1:48 PM 71.6 °F 62.6 °F 73% 30.05 in 10.0 mi WSW 11.5 mph - N/A   Scattered Clouds
2:08 PM 71.6 °F 62.6 °F 73% 30.05 in 10.0 mi WSW 9.2 mph - N/A   Scattered Clouds
2:29 PM 71.6 °F 62.6 °F 73% 30.05 in 10.0 mi SW 10.4 mph - N/A   Clear
2:48 PM 71.6 °F 62.6 °F 73% 30.04 in 10.0 mi SW 9.2 mph - N/A   Clear
3:08 PM 71.6 °F 62.6 °F 73% 30.05 in 10.0 mi WSW 8.1 mph - N/A   Clear
3:29 PM 71.6 °F 62.6 °F 73% 30.04 in 10.0 mi WSW 8.1 mph - N/A   Clear
3:48 PM 71.6 °F 62.6 °F 73% 30.03 in 10.0 mi WSW 9.2 mph - N/A   Clear
4:08 PM 71.6 °F 62.6 °F 73% 30.03 in 10.0 mi SW 6.9 mph - N/A   Clear
4:29 PM 71.6 °F 62.6 °F 73% 30.03 in 10.0 mi SW 8.1 mph - N/A   Clear
4:48 PM 71.6 °F 62.6 °F 73% 30.03 in 10.0 mi WSW 5.8 mph - N/A   Clear
5:08 PM 71.6 °F 62.6 °F 73% 30.03 in 10.0 mi WSW 6.9 mph - N/A   Clear
5:29 PM 71.6 °F 62.6 °F 73% 30.03 in 10.0 mi SW 5.8 mph - N/A   Clear
5:48 PM 69.8 °F 62.6 °F 78% 30.03 in 10.0 mi SW 5.8 mph - N/A   Clear
6:08 PM 69.8 °F 62.6 °F 78% 30.03 in 10.0 mi SW 8.1 mph - N/A   Clear
6:29 PM 69.8 °F 60.8 °F 73% 30.02 in 10.0 mi WSW 8.1 mph - N/A   Clear
6:48 PM 69.8 °F 60.8 °F 73% 30.02 in 10.0 mi SW 6.9 mph - N/A   Clear
7:08 PM 69.8 °F 62.6 °F 78% 30.02 in 10.0 mi WSW 8.1 mph - N/A   Clear
7:29 PM 69.8 °F 62.6 °F 78% 30.02 in 10.0 mi WSW 8.1 mph - N/A   Clear
7:48 PM 68.0 °F 60.8 °F 78% 30.02 in 10.0 mi WSW 5.8 mph - N/A   Scattered Clouds
8:09 PM 68.0 °F 62.6 °F 83% 30.02 in 10.0 mi WSW 6.9 mph - N/A   Scattered Clouds
8:29 PM 68.0 °F 62.6 °F 83% 30.02 in 10.0 mi WSW 5.8 mph - N/A   Scattered Clouds
8:48 PM 68.0 °F 62.6 °F 83% 30.02 in 10.0 mi SW 5.8 mph - N/A   Scattered Clouds
9:09 PM 66.2 °F 62.6 °F 88% 30.02 in 10.0 mi SW 5.8 mph - N/A   Clear
9:29 PM 66.2 °F 62.6 °F 88% 30.02 in 10.0 mi SW 5.8 mph - N/A   Clear
9:48 PM 66.2 °F 62.6 °F 88% 30.02 in 10.0 mi SW 4.6 mph - N/A   Clear
10:09 PM 66.2 °F 62.6 °F 88% 30.02 in 10.0 mi SW 8.1 mph - N/A   Clear
10:29 PM 64.4 °F 60.8 °F 88% 30.02 in 10.0 mi WSW 6.9 mph - N/A   Clear
10:48 PM 66.2 °F 62.6 °F 88% 30.03 in 10.0 mi WSW 8.1 mph - N/A   Clear
11:09 PM 66.2 °F 62.6 °F 88% 30.03 in 10.0 mi WSW 8.1 mph - N/A   Clear
11:29 PM 66.2 °F 60.8 °F 83% 30.03 in 10.0 mi WSW 8.1 mph - N/A   Clear
11:48 PM 66.2 °F 62.6 °F 88% 30.02 in 10.0 mi WSW 8.1 mph - N/A   Clear